STARLINK-3199 (49760 NORAD) Tracking and Keplerian Element Data
This shows tracking and keplerian element data for the satellite.
Feedback or suggestion? Click here.
Element | Value |
Catalog | 49760 |
Name | STARLINK-3199 |
Epoch Orbit | 130 |
Epoch Day | 140.58334491 |
Epoch Year | 2022 |
RAAN | 255.0466 |
Inclination | 53.2186 |
Eccentricity | 0.0001993 |
Argument of Perigee | 42.352 |
Mean Anonmoly | 329.1475 |
Mean Motion | 15.08865707 |
Decay Rate | -0.00051587 |
L1 | 1 49760U 21115AN 22140.58334491 -.00051587 00000+0 -32442-2 0 9996 |
L2 | 2 49760 53.2186 255.0466 0001993 42.3520 329.1475 15.08865707 1301 |
Live tracking and technical data element details for STARLINK-3199 (NORAD 49760). STARLINK-3199 can be tracked NOW for your location showing map with azimuth and elevation plus other details from your city location.
Track the satellite on the map from your city or location and see movement details for azimuth, elevation, latitude, longitude, range, height, and movement on the map or in text.
IsCatalogInMostPopularTable: catalog: 49760, numindb: 21
Update: records affected: 1
GetName: 49760 STARLINK-3199
Hit Count: updated at: Mon, 23 May 2022 21:31:49 GMT